Вернуться в каталог

STARLINK-1305

АктивенСвязьVLEO
NORAD 45377·PAYLOAD·🇺🇸 United States

Запущен Mar 18, 2020 с Cape Canaveral Space Force Station

Loading…

Ближайшие Пролёты (ближайшие 24 часа)

TLE

СвежийSource: CelesTrak SupGP

Эпоха: Sep 14, 2026, 22:07 UTC

1 45377C 20019T   26257.92201389  .00247020  00000+0  70718-3 0  2571
2 45377  53.0295 274.2587 0006258  44.8327  28.6673 15.92304629    10

Отслеживайте STARLINK-1305 в реальном времени с AllMySat

Download on the App Store